Terug naar catalogus

COSMOS 2251 DEB

ActiefLEO
NORAD 40796·DEBRIS·🇷🇺 Russia

Gelanceerd Jun 16, 1993 vanaf Plesetsk Cosmodrome

Loading…

Volgende Passages (komende 24 uur)

TLE

VersSource: Space-Track

Epoch: Sep 13, 2026, 22:32 UTC

1 40796U 93036BVZ 26256.93956029  .00003061  00000-0  35625-3 0  9995
2 40796  74.0120 316.2829 0052678  20.7033 151.9545 14.84766288802392

Volg COSMOS 2251 DEB in realtime met AllMySat

Download on the App Store